Regional Weather Roundup
Issued by NWS Cleveland, OH

Home | Current Version | Previous Version | Text Only | Print | Product List | Glossary Off
Versions: 1 2 3 4 5 6 7 8 9 10 11 12 13 14 15 16 17 18 19 20 21 22 23 24 25 26 27 28 29 30 31 32 33 34 35 36 37 38 39 40 41 42 43 44 45 46 47 48 49 50

254
ASUS41 KCLE 170510
RWRCLE
OHIO REGIONAL WEATHER ROUNDUP
NATIONAL WEATHER SERVICE CLEVELAND, OH
100 AM EDT THU AUG 17 2017

NOTE: "FAIR" INDICATES FEW OR NO CLOUDS BELOW 12,000 FEET WITH NO
SIGNIFICANT WEATHER AND/OR OBSTRUCTIONS TO VISIBILITY.

OHZ001>008-015>018-024>027-034-035-043-044-170600-
   NORTHWEST OHIO

CITY           SKY/WX    TMP DP  RH WIND       PRES   REMARKS
DEFIANCE       CLOUDY    73  63  70 SE7       29.94F
FINDLAY        PTCLDY    74  66  76 SE8       29.96F
TOLEDO EXPRESS PTCLDY    71  60  68 E5        29.96F
TOLEDO EXEC    CLOUDY    70  61  73 E7        29.97F
LIMA           CLOUDY    74  69  85 S7        29.97F
$$

OHZ009>014-019>023-028>033-038-089-170600-
   NORTHEAST OHIO

CITY           SKY/WX    TMP DP  RH WIND       PRES   REMARKS
CLE-HOPKINS    MOCLDY    73  58  59 SE6       30.03F
CLE-LAKEFRONT  CLEAR     74  56  53 SE3       30.01S
CUY CO. ARPT   NOT AVBL
LORAIN-ELYRIA  MOCLDY    67  55  65 SE6       30.02S
ASHTABULA      CLEAR     60  58  92 E3        30.06F
AKRON-CANTON   PTCLDY    72  59  63 SE7       30.04F
WOOSTER        CLOUDY    65  63  93 E3        30.04S
MANSFIELD      PTCLDY    72  67  84 SE7       30.02F
YOUNGSTOWN     PTCLDY    65  58  78 E7        30.05F
$$

OHZ042-051>053-060>062-070>072-077>081-170600-
  SOUTHWEST OHIO

CITY           SKY/WX    TMP DP  RH WIND       PRES   REMARKS
CINC-COVINGTON PTCLDY    76  73  91 S8        29.98F
CINC-LUNKEN    PTCLDY    76  73  91 S7        29.98S
HAMILTON       PTCLDY    77  73  87 CALM      29.97F
DAYTON         MOCLDY    74  70  87 SE7       29.98F
WRIGHT-PAT AFB DRIZZLE   75  74  96 SE5       29.97F
DAYTON GENERAL MOCLDY    76  71  85 S9        29.97F
WILMINGTON     MOCLDY    73  72  96 S6        29.99F
$$

OHZ036-037-039>041-045>050-054>059-063>069-073>076-082>088-170600-
  CENTRAL AND SOUTHEAST OHIO

CITY           SKY/WX    TMP DP  RH WIND       PRES   REMARKS
COLUMBUS       MOCLDY    77  71  82 SE7       29.99F
OSU AIRPORT    PTCLDY    76  71  85 SE6       29.99F
BOLTON FIELD   MOCLDY    73  71  91 S5        30.00S
RICKENBACK AFB CLOUDY    73  70  89 SE3       29.99S
NEWARK         PTCLDY    70  68  93 CALM      30.01S
MARION         MOCLDY    73  67  81 SE8       29.99F
LANCASTER      MOCLDY    74  72  93 SE5       30.01F
ZANESVILLE     PTCLDY    71  67  87 S3        30.02S
NEW PHILLY     NOT AVBL
$$




USA.gov is the U.S. government's official web portal to all federal, state and local government web resources and services.